Location: Unspecified
(0.0000°N, 0.0000°E)
Time: 13:15:43
(UTC+00:00)

deb Blok Kosmos - Pass Details

Date: 16 November 2025
Orbit: 1344 x 1638 km, 56.1° (Epoch: 13 December)

Event Time Altitude Azimuth Distance (km) Brightness Sun altitude
Rises 21:43:10 0° 200° (SSW) 4,861 ? -54.6°
Reaches altitude 10° 21:46:25 10° 195° (SSW) 3,874 ? -55.3°
Enters shadow 21:48:31 18° 191° (S) 3,263 ? -55.7°
